GFSNIL_con_sbcape_057.txt.gz
CAPE
924 1055 486 756 301 208 979 1388 1487 1840 2237 1910 1668 1766 1826 1545 1980 1634 1245 1853 913 32
631 1307 966 228 803 1223 489 1130 1445 1625 1643 2298 1856 1631 1524 2421 1982 2041 1715 1330 1605 782
1537 805 1382 905 505 490 856 1324 1132 1728 1617 2184 2394 2116 1738 2075 2424 1884 1946 1584 1525 1440
2079 1748 1041 1460 1151 677 648 945 2720 2255 2070 2057 2064 2260 2087 1653 2128 2354 2197 1734 1597 1411
1929 2404 1813 1095 1175 1031 884 1318 1268 2625 2507 2327 2199 1950 2260 2228 2266 2090 2278 2062 1355 1638
2091 2231 2545 2046 1320 1298 1357 1321 1836 1495 2471 2356 2207 2176 1939 2249 2373 2034 2226 2302 2070 1393
2572 2487 2461 2619 2284 1529 1760 1770 2242 2408 1915 2396 2170 2079 2246 2423 2384 2366 2083 2404 2459 2080
2529 2639 2595 2555 2669 2463 1724 2268 1893 2038 2647 2439 2409 2249 2138 2187 2426 2606 2637 2358 2479 2514
2750 2760 2736 2810 2772 2817 2698 1972 2262 2562 2120 2705 2688 2687 2078 2235 2391 2515 2672 2834 2620 2567
2686 2885 2913 3006 3011 2971 2945 2978 2677 2434 2856 2774 2837 2559 1552 1446 2348 2422 2669 2804 2837 2791
2535 2898 2920 2931 3046 3013 3037 3044 3090 3039 2875 3110 3127 2824 1216 836 2273 2540 2464 2726 3034 2981
2641 2930 3017 3005 3103 3198 3173 3151 3096 3206 3182 3186 3291 2463 1478 381 1950 2594 2647 2630 2647 2895
2819 3020 3026 3238 3219 3444 3379 3318 3325 3251 3338 3270 3282 3224 1395 336 2476 2405 2419 2507 2530 2338
3199 3190 3323 3247 3401 3476 3649 3648 3518 3504 3430 3456 3429 3463 2052 157 2645 3092 2939 2672 2497 2314

GFSNIL_con_sbcape_060.txt.gz
CAPE
215 284 104 0 0 0 465 1031 1043 1277 1575 1248 1212 1088 962 868 944 846 577 534 239 0
631 340 241 69 0 0 99 984 1075 1159 1542 1494 1325 1060 1297 1012 1148 1366 993 499 945 380
332 763 978 138 39 402 177 413 1023 1064 1256 1632 1508 1232 1012 1456 1446 1486 1347 1101 742 841
564 226 483 889 133 14 128 545 558 1067 1199 1227 1751 1409 1076 1018 1636 1449 1544 1509 1136 921
907 845 384 363 1056 398 88 53 367 1660 1341 1262 1458 1795 1607 1284 1455 1859 1519 1589 1470 1312
1156 1331 1263 751 508 990 664 340 334 1349 1934 1667 1580 1537 1915 1875 1540 1418 1741 1729 1637 1518
1114 1602 1931 1624 1037 598 1004 882 589 743 1630 2045 1850 1719 1629 1703 1922 1783 1678 1632 1727 1716
1436 1302 1707 2116 1838 1353 766 942 1068 960 1070 1726 1982 1936 1777 1696 1553 1682 1914 1857 1823 1947
1525 1893 1727 1836 2078 2117 1675 1151 1204 1257 1431 1698 1914 2015 1592 1775 1860 1773 1671 1721 1767 1732
1681 1862 2203 2150 2119 2208 2276 1819 1467 1736 1548 1475 2119 2080 1104 954 1804 1809 1922 1990 2050 2106
1916 2147 2267 2350 2322 2330 2395 2468 2220 1734 1901 2234 1947 1925 818 499 1607 2043 2006 2056 2129 2175
2046 2352 2490 2580 2585 2597 2660 2642 2659 2640 2427 2122 2301 2238 1096 98 1428 2003 2276 2291 2178 2259
1586 2314 2555 2645 2694 2819 2791 2823 2817 2809 2848 2828 2756 2511 1019 214 2163 2277 2351 2440 2518 2226
1543 1711 2342 2605 2687 2679 2881 2860 2822 2863 2863 2859 2730 2864 1102 69 2357 2809 2816 2683 2621 2519

GFSNIL_con_sbcape_063.txt.gz
CAPE
19 0 0 0 0 0 0 79 397 725 1217 856 766 704 636 410 438 411 266 393 139 0
120 48 9 0 0 0 0 141 374 567 995 1120 998 867 794 672 640 642 444 280 289 159
198 83 100 1 0 0 0 0 495 702 856 1265 1149 1009 859 860 680 782 794 667 352 379
254 261 159 32 0 2 0 0 29 639 827 1017 1276 1100 881 912 1115 921 922 976 866 714
215 254 497 624 48 0 5 43 136 149 746 854 1052 1272 1127 1007 1079 1248 1242 1211 1192 1117
305 225 118 211 753 405 25 2 0 483 875 832 929 1118 1334 1204 1062 990 1205 1291 1291 1408
517 544 513 268 124 440 749 455 69 20 412 1113 1214 1180 1257 1516 1302 1128 1156 1320 1451 1485
415 617 737 780 659 303 413 735 616 480 259 880 1274 1421 1418 1354 1501 1531 1416 1376 1305 1357
554 640 938 1209 1213 989 595 444 710 665 662 582 1061 1202 1362 1509 1405 1273 1437 1537 1549 1514
896 875 893 1252 1634 1705 1366 954 583 728 796 795 878 973 584 713 1491 1412 1341 1310 1358 1357
1068 1227 1368 1253 1391 1630 1898 1741 1380 1064 1035 1029 1046 1299 561 235 1058 1532 1600 1583 1605 1604
1200 1252 1417 1815 1747 1756 1812 2053 2070 1736 1449 1480 1557 1039 600 77 1050 1504 1691 1770 1696 1712
1108 1347 1606 1732 1977 2014 2085 2098 2209 2337 2195 1747 1681 1751 389 0 1256 1551 1759 1921 2028 1865
1404 1575 1779 2010 2081 2249 2299 2405 2458 2503 2517 2501 2201 2226 774 0 1533 2012 2138 2156 2252 2264

GFSNIL_con_sbcape_069.txt.gz
CAPE
1492 671 735 1099 718 524 413 438 1050 1587 1780 2152 2302 2476 2537 2264 2139 2190 2203 2213 2075 1522
1275 1207 934 1469 1207 644 987 324 742 1131 1387 1670 1979 2401 2584 2326 2431 2271 2345 2143 2375 2312
1222 1313 1289 1206 1313 1360 1009 810 604 1062 1183 1391 1668 1969 2361 2161 2464 2612 2434 2235 2194 2377
1282 1034 1099 1016 1017 1409 1201 1072 1139 1309 1403 1521 1624 1862 2165 2274 2177 2465 2658 2710 2608 2574
1355 1422 984 1220 984 941 1224 1109 1126 1164 1320 1386 1505 1732 1994 1982 1873 2368 2545 2678 2804 2812
1379 1305 1547 1507 1457 1202 1210 1304 1038 1181 1319 1589 1472 1697 1913 2031 2132 2463 2578 2653 2784 2781
1454 1501 1485 1591 1653 1269 1499 1508 1298 1453 1639 1455 1271 1308 1354 1561 2067 2297 2333 2469 2584 2650
1565 1594 1711 1755 1674 1385 1427 1570 1815 1558 1430 1418 1297 966 1605 1588 1792 2225 2393 2490 2628 2670
1717 1757 1768 1841 1911 1825 1678 1377 1721 1605 1531 1513 1092 486 319 1055 1665 1865 2213 2279 2427 2631
1833 1863 1865 1839 1822 2026 2182 1804 1958 1757 1624 1743 1719 739 30 10 1293 2010 2401 2774 2635 2002
1800 1856 1913 1899 1921 1886 1434 1810 2100 1895 1940 2012 1995 1047 82 0 975 2056 2520 2603 2654 2799
1602 1783 2003 2032 2021 1912 1888 1877 1908 1871 2070 2368 2301 884 24 0 810 1115 2257 2470 2707 2830
1759 1857 1953 2053 2172 2326 2349 2159 1837 1869 2015 1649 2299 1445 61 0 1175 1816 1578 2486 2796 1761
2010 2075 2207 2283 2407 2487 2489 2586 2719 2767 2736 2484 2229 2200 367 0 1509 1751 2053 2144 2302 2427

GFSNIL_con_sbcape_072.txt.gz
CAPE
2357 1172 1305 1514 1019 931 670 487 686 1603 1902 2070 1974 2357 2487 2482 1951 2220 1946 2267 2207 1166
2484 2167 1318 2585 1668 1185 1301 786 910 1055 1510 1547 1808 2123 2461 2229 2484 2478 2745 2565 2670 2592
1703 1991 2054 1576 1910 1877 1386 1365 1085 1124 970 1218 1724 1987 2412 1920 2263 2785 2558 2214 2271 2671
1799 1611 1659 1278 1521 1834 1855 1722 1880 1453 1340 1058 1507 1988 2448 2316 1901 2307 2897 2930 2966 3137
2147 2405 1427 1665 1560 1718 1937 2059 2073 1955 1831 1490 1379 1916 2352 2372 1695 2310 2726 2959 3202 3328
1823 1788 2275 2170 1914 1815 2012 2049 2091 2066 2030 1854 1386 1421 1976 2214 2217 2188 2475 2910 3169 3328
2517 2565 2069 2614 2679 2098 2405 2162 2217 2362 2194 2021 1765 1301 1296 1521 2070 2205 2237 2638 3027 3263
2901 2908 3145 3098 2974 2511 2464 2190 2325 2325 2260 2106 1860 1261 1666 1259 1256 1838 2277 2362 2488 2758
3114 3192 3178 3224 3123 3035 2556 2706 2555 2479 2387 2191 1713 741 449 820 1258 1510 2218 2152 2362 2523
3216 3344 3410 2892 3247 3358 3132 2871 2940 2599 2589 2692 2597 1253 172 92 1235 1387 2236 2938 2747 1823
3341 3348 3329 3338 3359 3665 3003 3431 3464 2708 2828 2736 2766 1567 557 0 1309 2204 2612 2872 3186 3444
3077 3366 3231 3285 3402 3028 3216 3142 3021 2981 3205 3347 3130 1424 659 36 1455 1457 2512 2618 3087 3509
3141 3490 3458 3540 3559 3301 2760 2541 2367 2480 2924 2429 3395 2413 67 26 1635 2045 1547 2890 3627 2015
2878 3488 3562 3710 3660 3611 3271 3199 3506 3213 3223 3100 2787 2984 344 0 2075 1577 1662 1706 1725 2104

GFSNIL_con_sbcape_075.txt.gz
CAPE
2703 1016 772 2197 1001 531 492 615 3700 2454 2102 2017 2355 1857 2797 2330 2008 3115 2126 2250 3005 1777
2343 2019 1146 2600 3065 1469 2159 709 842 1072 2149 2102 1978 2591 3712 2084 2326 2452 2543 2492 2962 2352
2351 2488 2621 3122 3505 2760 2679 2437 1306 1533 1327 1725 2301 2604 3631 2671 3396 2938 2232 2379 4032 3714
2397 2169 2538 2402 3030 2885 3047 3138 2998 2304 1969 1722 2028 2624 3737 3704 2863 3564 3757 3179 3000 3311
2844 2652 2636 2527 2406 2947 3264 3652 3565 3363 2950 2422 2038 2962 3193 2417 2255 2272 2380 2627 3865 3382
2866 2952 2813 2916 2821 2778 3305 3592 3183 3475 3701 3275 2529 2699 3008 3373 2935 2185 2542 3045 3660 3648
3060 3145 2900 3083 3252 3228 3558 3764 3700 3950 3980 3685 3195 2593 2226 2693 3318 3345 2532 2959 3337 3440
3219 3273 3375 3141 3389 3516 3648 3664 3941 4051 3944 3606 2999 2089 2688 2544 2889 3518 3254 2997 2986 3334
3254 3566 3474 3371 3484 3728 3754 3821 4066 4024 3973 3754 2285 1161 892 1857 2325 2690 3047 3310 3666 3786
3454 3697 3681 3603 3860 3985 4035 3970 4077 4111 4069 4021 3999 1366 275 276 2195 2595 2910 3257 3513 3016
3560 3726 3929 4067 4108 4147 4161 4107 4192 4247 4233 4218 3874 2197 830 0 2003 2247 2710 3111 3587 3820
3567 3849 4099 4081 4169 4251 4291 4288 4286 4394 4383 4402 4184 1860 1084 40 1901 2121 2954 3352 3502 3502
3772 4027 4173 4222 4231 4316 4337 4188 3263 3809 4306 3874 4410 3270 566 184 1917 2363 1948 3031 3507 2491
4084 4201 4321 4456 4482 4481 4298 3631 4252 4209 4348 4414 4097 4320 1199 0 2767 2071 2018 1881 1725 1986

GFSNIL_con_sbcape_078.txt.gz
CAPE
2395 1390 1757 2724 1141 2118 1286 1558 2452 2798 3329 3548 3272 3266 3454 3261 3297 3370 3295 3510 3689 3228
2202 2362 1140 2652 3357 1404 2270 2393 2649 2816 3219 3219 3349 3162 3637 2922 3196 3307 3390 3545 3685 3635
975 1770 1888 1005 3131 2614 3495 3245 2962 3006 2945 3067 3583 3556 3661 2866 3368 3507 3024 3249 3532 3852
1178 1143 1125 1810 1961 2478 2511 3586 3619 3545 3135 3083 2970 3506 3689 3245 3151 3177 3415 3068 3644 3339
1420 1183 1117 757 2435 2481 3436 4014 4355 3443 3909 2967 2786 2985 3291 3080 2065 3114 3354 3639 3540 3756
1710 1673 1383 923 1586 2570 2179 2799 3060 3759 3105 3322 2759 2592 3106 3173 2839 2900 2945 3187 3706 3709
1888 1945 1752 1893 1330 1645 2693 2600 3007 2891 3345 3310 3113 2742 2346 2949 3090 3166 2882 3133 3116 3619
2204 2001 2300 2355 2376 2007 2044 2418 2799 3066 3152 3363 3281 2764 2649 2412 2918 3060 3221 3234 3049 3046
2445 2449 2415 2435 2590 2514 2303 2602 2957 3009 3220 3336 3163 2360 1500 1958 1946 2819 2850 2817 2887 3176
2602 2761 2646 2753 2618 2706 2645 2616 3006 3036 3135 3271 3311 2239 844 627 1968 2003 2366 2977 2853 2886
2552 2771 3000 2824 2824 2690 2837 2920 2872 3100 3188 3312 3328 2869 1512 0 1360 2151 2434 2527 2380 2570
2566 2891 3084 3110 2975 2894 2927 3036 3060 3049 3346 3413 3323 2703 2112 39 816 1461 1998 2099 2146 2512
2899 2931 3106 3218 3170 3171 3265 3192 3171 3232 3404 3491 3687 3215 888 23 1843 1826 1792 2170 2380 2270
3776 3064 3337 3580 3534 3614 3539 3465 3546 3566 3610 4004 3750 3826 1743 0 2062 2128 2205 2120 2091 2331

GFSNIL_con_sbcape_084.txt.gz
CAPE
0 0 242 357 464 760 773 797 843 704 1112 1095 576 729 1002 1144 1126 1362 1403 979 1252 1315
434 9 8 605 566 605 544 391 597 1058 1184 982 865 751 1152 877 976 1350 1405 1184 905 910
12 475 0 122 498 389 365 309 425 1021 1397 1093 984 1015 1134 917 963 1158 930 1029 1238 1273
0 183 317 22 61 785 131 331 811 572 1387 1226 1235 925 1016 1218 935 1099 1035 897 1039 1314
0 0 536 454 8 103 575 1097 926 768 1224 1270 1042 1071 1005 975 1157 1143 1426 1428 1203 1268
0 0 113 562 358 8 282 576 1341 1170 1012 1241 1204 1080 1233 1283 1221 1020 1066 1261 1421 1464
159 0 0 276 127 331 308 554 947 1262 1069 1036 1036 874 780 1054 1139 1057 981 1097 1480 1636
343 133 0 0 202 3 441 719 1147 1324 1140 1072 1018 971 729 880 1062 1073 1089 1158 1249 1347
333 283 137 0 0 9 0 707 641 1208 1416 1248 1406 1213 949 737 937 1232 1309 1280 1259 1414
270 366 281 307 12 1 0 0 592 677 937 1283 1567 1630 1257 742 941 858 1153 1251 1267 1253
853 486 379 373 433 210 151 4 0 781 924 929 1000 1265 1193 728 815 1124 868 1024 1270 1279
952 855 752 688 658 619 574 510 162 11 593 1187 1307 1201 899 224 692 1014 942 837 603 1049
1 1170 1100 1004 923 940 928 1059 976 754 584 679 1067 1161 583 42 1261 692 544 546 686 644
0 190 1397 1226 1089 1052 1144 1108 1233 1289 1115 1131 1325 1546 415 1 1285 1611 1270 712 731 559